Location: Cowley
(49.5667°N, 114.0667°W)
Time: 16:54:10
(UTC+00:00)

ISS - Pass Details

Date: 06 December 2021
Orbit: 413 x 422 km, 51.6° (Epoch: 27 January)

Event Time Altitude Azimuth Distance (km) Brightness Sun altitude
Rises 01:19:27 0° 288° (WNW) 2,388 1.0 -15.7°
Reaches altitude 10° 01:21:38 10° 281° (W) 1,518 0.1 -16.1°
Maximum altitude 01:24:50 38° 211° (SSW) 661 -2.4 -16.6°
Enters shadow 01:27:27 14° 146° (SE) 1,299 -1.5 -17.0°
